星链-1582 (STARLINK-1582 )

导读

STARLINK-1582是美国航天企业SpaceX星链计划中的卫星,于2020年8月7日发射入轨,隶属于美国。星链计划旨在搭建全球卫星互联网,该卫星承担低轨道通信传输任务,服务于全球网络覆盖建设,可提供互联网接入服务,属于美国Starlink低地轨道卫星组网中的一环,推动了近地轨道卫星通信网络的搭建进程。

基本信息
目录编号:
46043
目录名称:
STARLINK-1582
国际标识:
2020-055S
轨道中心:
EARTH
卫星名称:
星链-1582
卫星全名:
星链-1582 (STARLINK-1582 )
卫星状态:
在轨 (已飞行2228 天)
发射日期:
2020-08-07 UTC
国别 :
美国 (US)
星等 :
--
该卫星已列入 空间交会检测服务 Space Conjunction Data Service (SCDS) ,当前飞行风险评估等级: 无高风险
轨道信息
数据来源 国际轨道数据
星历时间: 2026-09-12T22:39:44+0800
21小时前
查看轨道信息
半长轴: 6848.863km
偏心率: 0.0001261
轨道倾角: 53.161°
近地点辐角 61.053°
升交点赤经 336.834°
平近点角 299.060°
近地点: 469.862km
远地点: 471.59km
周期: 94.013分钟
每日圈数: 15.317048
详细信息
固有亮度:
5
最大亮度:
2.5
卫星平台:
Starlink V1.0
覆盖范围:
全球
运营商:
太空探索技术公司
运营商所在国:
美国
制造商(研发单位):
太空探索技术公司
制造商所在国:
美国
使用方式:
暂无
卫星简介
星链(Starlink)计划是由太空探索技术公司(SpaceX)提出的一个巨型低轨卫星互联网星座项目,计划在2019年至2024年间在太空搭建由约1.2万颗卫星组成的“星链”网络,其中1584颗将部署在地球上空550千米处的近地轨道,并从2020年开始工作。该卫星仍在工作。
2D轨道图
3D轨道图
轨道高度分析图
轨道倾角分析图
轨道综合分析图
查看轨道综合分析图
交会数据列表
事件ID 空间交会对象 最接近时刻(TCA) 交会距离 交会风险概率(CRP) 交会风险指数(CRI) 操作
CDM_260909-043004-604306-238321
2026-09-09T
04:30:02+0000
0.747 km
远距离
5.911464E-5 中风险 0.7
CDM_260915-065404-604306-238621
2026-09-15T
06:54:52+0000
1.971 km
极远距离
2.524315E-6 低风险 0.43
CDM_260914-084104-604306-903621
2026-09-14T
08:41:18+0000
2.400 km
极远距离
1.838414E-6 低风险 0.4
CDM_260915-051004-604306-866321
2026-09-15T
05:10:00+0000
2.628 km
极远距离
1.600242E-6 低风险 0.39
与全量物体交会距离演化趋势
与全量物体交会风险概率演化趋势